Location: Magnolia Avenue
(33.9572°N, 117.4184°W)
Time: 15:34:25
(UTC+00:00)

Daily predictions for brighter satellites

Satellite Brightness Start Highest point End
(mag) Time Altitude Azimuth Time Altitude Azimuth Time Altitude Azimuth
Okean 2 Rocket 3.6 12:01:03 10° NNW 12:05:12 37° W 12:06:29 31° SW
Cosmos 1378 Rocket 3.4 12:02:24 18° SSW 12:05:35 77° W 12:09:57 10° N
PSLV R/B 3.8 12:01:35 10° N 12:05:48 48° WNW 12:07:37 29° SW
Cosmos 2151 Rocket 3.6 12:02:31 10° NNW 12:06:48 55° W 12:11:05 10° S
Cosmos 494 Rocket 4.4 12:04:02 10° NNW 12:08:56 40° W 12:13:49 10° S
Meteor 1-31 Rocket 3.7 12:09:18 10° NNE 12:13:07 50° E 12:16:54 10° S
Meteor 1-23 Rocket 4.2 12:08:24 10° SSW 12:14:05 78° W 12:19:53 10° N
Cosmos 1818 3.5 12:09:43 10° NNW 12:15:09 74° WSW 12:20:32 10° SSE
Cosmos 2195 Rocket 4.4 12:09:25 10° SSW 12:15:32 73° W 12:21:46 10° N
Cosmos 1603 4.5 12:10:04 10° N 12:15:34 54° ENE 12:21:05 10° SE
ATLAS 5 CENTAUR R/B 2.9 12:12:59 10° NNW 12:19:01 67° ENE 12:25:54 10° SE
Cosmos 1627 Rocket 4.4 12:13:10 10° S 12:19:17 75° W 12:25:24 10° N
Cosmos 2263 Rocket 2.2 12:15:34 16° SW 12:20:02 61° WNW 12:25:41 10° NNE
Meteor 1-15 Rocket 4.3 12:14:55 10° N 12:20:33 82° E 12:26:15 10° S
Cosmos 1867 4.2 12:20:35 21° WSW 12:23:37 38° NW 12:28:41 10° NNE
CZ-4B R/B 2.4 12:24:08 23° SW 12:25:08 26° W 12:28:08 10° NW
Lacrosse 4 Rocket 4.3 12:28:43 10° SE 12:31:25 16° ESE 12:34:08 10° ENE
H-2A R/B 2.6 12:33:38 10° NNE 12:37:36 70° ESE 12:41:27 10° S
Meteor 2-13 Rocket 4.4 12:32:48 10° S 12:38:50 77° W 12:44:55 10° N
ATLAS 3B R/B 3.8 12:36:59 13° W 12:41:28 25° NW 12:46:48 10° N
Cosmos 1766 4.0 12:38:37 10° N 12:42:26 57° E 12:46:14 10° SSE
Okean 2 3.3 12:39:49 10° S 12:43:55 87° W 12:48:02 10° N
ALOS 2.7 12:40:02 10° NNE 12:44:40 66° E 12:49:18 10° S
STARLINK-43 3.6 12:41:47 10° NW 12:45:27 70° NE 12:49:07 10° SE
Cosmos 2251 Rocket 3.8 12:41:11 10° NNW 12:46:32 75° ENE 12:51:48 10° SSE
Cosmos 1975 Rocket 3.0 12:45:15 10° SSW 12:49:34 74° W 12:53:57 10° N
Okean 1 Rocket 3.5 12:46:23 10° NNW 12:50:29 40° W 12:54:35 10° SSW
CZ-4B R/B 4.1 12:50:33 10° N 12:54:10 42° WNW 12:57:41 10° SW
Shenzhou-11 Module 2.6 12:53:55 10° W 12:56:14 33° NNW 12:58:37 10° NE
Cosmos 1842 3.2 12:54:16 10° S 12:58:09 88° W 13:02:04 10° N
PSLV R/B 4.3 12:54:46 10° S 12:58:49 46° W 13:02:52 10° NNW
Cosmos 1378 3.8 12:57:20 10° SSW 13:00:44 34° W 13:04:10 10° NNW
Cosmos 1484 Rocket 3.0 12:57:44 10° N 13:01:22 47° WNW 13:04:57 10° SSW
COSMO-SKYMED 1 3.1 12:58:18 10° SSE 13:02:36 65° ENE 13:06:54 10° N
Cosmos 1733 3.5 12:59:14 10° N 13:03:05 76° E 13:06:55 10° S
Lacrosse 5 2.7 12:59:18 10° SSW 13:04:12 53° SE 13:09:08 10° NE
METEOR-M 4.2 13:01:24 10° N 13:06:46 81° WNW 13:12:06 10° SSW
USA 234 3.3 13:02:08 10° SE 13:08:40 80° SW 13:15:14 10° NW
